Tracking 23583 objects as of 26-Jul-2021
HD Live streaming from Space Station
objects crossing your sky now

OPS 6582 (TRANSIT 5B-5)

Track OPS 6582 (TRANSIT 5B-5) now!
10-day predictions
OPS 6582 (TRANSIT 5B-5) is classified as:


NORAD ID: 965
Int'l Code: 1964-083D
Perigee: 1,022.8 km
Apogee: 1,086.5 km
Inclination: 90.0 °
Period: 106.1 minutes
Semi major axis: 7425 km
RCS: 1.0908 m2 (large)
Launch date: December 13, 1964
Source: United States (US)
Launch site: AIR FORCE WESTERN TEST RANGE (AFWTR)
aabbcc
Your satellite tracking list
Your tracking list is empty




NASA's NSSDC Master Catalog

Two Line Element Set (TLE):
1 00965U 64083D   21206.92163959  .00000021  00000-0  15324-4 0  9998
2 00965  90.0198 194.5158 0042934 102.8977 286.2483 13.56758354801243
Source of the keplerian elements: AFSPC